Terminal Aerodrome Forecast
Issued by NWS

Home | Current Version | Previous Version | Text Only | Print | Product List | Glossary On
Versions: 1 2 3 4 5 6 7 8 9 10 11 12 13 14 15 16 17 18 19 20 21 22 23 24 25 26 27 28 29 30 31 32 33 34
000
FTUS41 KBOX 201120
TAFBED
TAF
KBED 201120Z 2012/2112 VRB03KT P6SM BKN070
     FM202000 03004KT P6SM BKN020
     FM210200 VRB03KT P6SM -SHSN OVC020
     FM210300 VRB03KT 3SM -SHSN OVC020
     FM210600 01004KT P6SM OVC015
     FM211100 01004KT P6SM -SHSN OVC015=

USA.gov is the U.S. government's official web portal to all federal, state and local government web resources and services.